Location: Aulus
(42.7909°N, 1.3399°E)
Time: 16:59:32
(UTC+00:00)

DELTA 2 R/B (1) - Pass Details

Date: 19 May 2025
Orbit: 788 x 799 km, 39.6° (Epoch: 12 June)

Event Time Altitude Azimuth Distance (km) Brightness Sun altitude
Rises 22:11:06 0° 258° (WSW) 3,273 6.9 -23.1°
Reaches altitude 10° 22:13:35 10° 255° (WSW) 2,346 6.1 -23.3°
Maximum altitude 22:19:02 63° 176° (S) 881 3.5 -23.7°
Enters shadow 22:19:09 62° 170° (S) 882 3.4 -23.7°
